FW4212 Weather Reports


Display with metric or nautical units.
time (UTC)temp
F
wind
direction
speed
MPH
gust
MPH
rain 1hr
in
rain 24hr
in
rain mn
in
humidity
%
barometer
mb
20260905040529 75 275 0.0 0.0 0.00 0.00 0.00 88 1015.1
20260905040026 75 275 0.0 0.0 0.00 0.00 0.00 88 1015.2
20260905035526 76 275 0.0 0.0 0.00 0.00 0.00 87 1015.1
20260905035023 76 275 0.0 0.0 0.00 0.00 0.00 87 1015.0
20260905034527 76 275 0.0 0.0 0.00 0.00 0.00 88 1014.9
20260905034022 76 275 0.0 0.0 0.00 0.00 0.00 88 1014.9
20260905033524 76 275 0.0 0.0 0.00 0.00 0.00 88 1014.8
20260905033023 76 275 0.0 0.0 0.00 0.00 0.00 88 1014.8
20260905032523 76 275 0.0 0.0 0.00 0.00 0.00 87 1014.7
20260905032026 76 275 0.0 0.0 0.00 0.00 0.00 87 1014.6
20260905031528 76 275 0.0 0.0 0.00 0.00 0.00 86 1014.8
20260905031022 76 275 0.0 0.0 0.00 0.00 0.00 86 1014.9
20260905030522 76 275 0.0 0.0 0.00 0.00 0.00 86 1014.8
20260905030029 76 275 0.0 0.0 0.00 0.00 0.00 86 1014.7
20260905025521 77 275 0.0 0.0 0.00 0.00 0.00 85 1014.7
20260905025023 77 275 0.0 0.0 0.00 0.00 0.00 84 1014.6
20260905024522 77 275 0.0 0.0 0.00 0.00 0.00 84 1014.6
20260905024021 77 275 0.0 0.0 0.00 0.00 0.00 84 1014.8
20260905023521 77 275 0.0 0.0 0.00 0.00 0.00 84 1014.7
20260905023021 77 275 0.0 0.0 0.00 0.00 0.00 85 1014.7
20260905022520 77 275 0.0 0.0 0.00 0.00 0.00 84 1014.7
20260905022021 77 275 0.0 0.0 0.00 0.00 0.00 84 1014.9
20260905021527 77 275 0.0 0.0 0.00 0.00 0.00 84 1014.9
20260905021021 77 275 0.0 1.0 0.00 0.00 0.00 84 1014.9
20260905020521 77 275 0.0 2.0 0.00 0.00 0.00 84 1014.9
20260905020035 77 275 1.0 2.0 0.00 0.00 0.00 84 1014.9
20260905015519 78 275 0.0 2.0 0.00 0.00 0.00 82 1014.9
20260905015023 78 275 0.0 0.0 0.00 0.00 0.00 82 1014.9
20260905014520 78 275 0.0 0.0 0.00 0.00 0.00 81 1014.9
20260905014019 78 275 0.0 1.0 0.00 0.00 0.00 81 1014.9
20260905013522 78 275 0.0 1.0 0.00 0.00 0.00 80 1015.1
20260905013029 79 275 0.0 0.0 0.00 0.00 0.00 80 1015.1
20260905012519 79 275 0.0 0.0 0.00 0.00 0.00 80 1015.2
20260905012019 79 275 0.0 0.0 0.00 0.00 0.00 79 1015.3
20260905011531 79 275 0.0 0.0 0.00 0.00 0.00 79 1015.1
20260905011018 79 275 0.0 1.0 0.00 0.00 0.00 79 1015.1
20260905010519 79 275 0.0 1.0 0.00 0.00 0.00 78 1015.1
20260905010018 79 275 0.0 0.0 0.00 0.00 0.00 80 1015.0
20260905005517 80 275 0.0 1.0 0.00 0.00 0.00 80 1015.1
20260905005018 80 275 0.0 1.0 0.00 0.00 0.00 80 1015.1
20260905004518 80 275 0.0 6.0 0.00 0.00 0.00 80 1015.1
20260905004017 80 264 3.0 6.0 0.00 0.00 0.00 80 1015.1
20260905003517 80 246 0.0 0.0 0.00 0.00 0.00 79 1015.2
20260905003022 80 121 0.0 0.0 0.00 0.00 0.00 79 1015.1
20260905002517 80 121 0.0 0.0 0.00 0.00 0.00 78 1014.9
20260905002017 81 121 0.0 0.0 0.00 0.00 0.00 77 1014.9
20260905001520 81 121 0.0 0.0 0.00 0.00 0.00 77 1015.1
20260905001019 81 121 0.0 0.0 0.00 0.00 0.00 76 1015.0
20260905000517 82 121 0.0 0.0 0.00 0.00 0.00 75 1014.9
20260905000017 82 121 0.0 0.0 0.00 0.00 0.00 74 1014.9
20260904235516 82 121 0.0 1.0 0.00 0.00 0.00 75 1014.9
20260904235018 83 126 0.0 2.0 0.00 0.00 0.00 74 1014.8
20260904234519 83 117 0.0 3.0 0.00 0.00 0.00 73 1014.8
20260904234015 83 94 0.0 1.0 0.00 0.00 0.00 73 1014.8
20260904233516 84 17 0.0 3.0 0.00 0.00 0.00 75 1014.8
20260904233016 84 35 0.0 4.0 0.00 0.00 0.00 74 1014.8
20260904232516 84 142 0.0 5.0 0.00 0.00 0.00 74 1014.8
20260904232016 84 222 0.0 0.0 0.00 0.00 0.00 73 1014.8
20260904231515 85 222 0.0 0.0 0.00 0.00 0.00 71 1014.8
20260904231015 85 222 0.0 0.0 0.00 0.00 0.00 70 1014.7
20260904230515 86 222 0.0 0.0 0.00 0.00 0.00 69 1014.4
20260904230015 86 222 0.0 0.0 0.00 0.00 0.00 68 1014.3
20260904225517 87 222 0.0 0.0 0.00 0.00 0.00 65 1014.1
20260904225014 88 222 0.0 0.0 0.00 0.00 0.00 63 1014.1
20260904224514 89 222 0.0 1.0 0.00 0.00 0.00 60 1014.1
20260904224014 91 222 0.0 1.0 0.00 0.00 0.00 55 1014.0
20260904223512 91 205 0.0 2.0 0.00 0.00 0.00 54 1014.1
20260904223013 91 205 0.0 4.0 0.00 0.00 0.00 55 1014.2
20260904222512 91 218 0.0 4.0 0.00 0.00 0.00 56 1014.2
20260904222015 91 217 0.0 4.0 0.00 0.00 0.00 54 1014.2
20260904221512 91 275 0.0 2.0 0.00 0.00 0.00 57 1014.3
20260904221012 90 275 0.0 2.0 0.00 0.00 0.00 62 1014.3
20260904220512 91 275 0.0 4.0 0.00 0.00 0.00 55 1014.3
20260904220012 92 275 0.0 4.0 0.00 0.00 0.00 55 1014.3
20260904215514 92 282 0.0 3.0 0.00 0.00 0.00 55 1014.4
20260904215011 91 245 0.0 3.0 0.00 0.00 0.00 55 1014.4
20260904214511 91 208 0.0 1.0 0.00 0.00 0.00 60 1014.4
20260904214010 92 331 0.0 3.0 0.00 0.00 0.00 53 1014.3
20260904213510 90 220 1.0 3.0 0.00 0.00 0.00 60 1014.3
20260904213014 90 208 0.0 3.0 0.00 0.00 0.00 57 1014.2
20260904212512 91 228 0.0 3.0 0.00 0.00 0.00 57 1014.4
20260904212010 91 223 1.0 3.0 0.00 0.00 0.00 53 1014.2
20260904211509 92 226 0.0 1.0 0.00 0.00 0.00 57 1014.2
20260904211008 92 226 0.0 2.0 0.00 0.00 0.00 54 1014.2
20260904210509 93 228 0.0 2.0 0.00 0.00 0.00 52 1014.4
20260904210011 93 232 0.0 3.0 0.00 0.00 0.00 51 1014.3
20260904205510 92 232 0.0 3.0 0.00 0.00 0.00 52 1014.4
20260904205007 92 285 0.0 2.0 0.00 0.00 0.00 57 1014.4
20260904204507 93 285 0.0 2.0 0.00 0.00 0.00 50 1014.3
20260904204007 93 288 1.0 2.0 0.00 0.00 0.00 50 1014.3
20260904203506 93 296 0.0 5.0 0.00 0.00 0.00 51 1014.4
20260904203010 93 205 2.0 5.0 0.00 0.00 0.00 49 1014.5
20260904202506 93 71 1.0 4.0 0.00 0.00 0.00 55 1014.6
20260904202005 93 129 1.0 4.0 0.00 0.00 0.00 49 1014.5
20260904201505 93 53 0.0 3.0 0.00 0.00 0.00 54 1014.6
20260904201005 93 112 0.0 6.0 0.00 0.00 0.00 50 1014.5
20260904200506 94 227 2.0 6.0 0.00 0.00 0.00 51 1014.5
20260904200004 94 272 0.0 3.0 0.00 0.00 0.00 56 1014.4
20260904195502 94 88 0.0 4.0 0.00 0.00 0.00 57 1014.7
20260904195002 93 95 1.0 4.0 0.00 0.00 0.00 51 1014.7
20260904194503 94 103 0.0 3.0 0.00 0.00 0.00 53 1014.8
20260904194100 94 128 0.0 2.0 0.00 0.00 0.00 52 1014.7
20260904193601 94 263 0.0 3.0 0.00 0.00 0.00 51 1014.8
20260904193059 94 217 1.0 3.0 0.00 0.00 0.00 47 1014.9
20260904192600 93 254 1.0 3.0 0.00 0.00 0.00 49 1015.1
20260904192056 93 22 0.0 3.0 0.00 0.00 0.00 51 1015.2
20260904191555 93 54 0.0 3.0 0.00 0.00 0.00 52 1015.4
20260904191054 94 296 0.0 2.0 0.00 0.00 0.00 57 1015.5
20260904190554 93 223 0.0 2.0 0.00 0.00 0.00 51 1015.6
20260904190053 93 57 0.0 4.0 0.00 0.00 0.00 52 1015.8
20260904185551 93 117 1.0 4.0 0.00 0.00 0.00 50 1015.8
20260904185050 93 67 1.0 4.0 0.00 0.00 0.00 56 1015.8
20260904184549 93 49 1.0 3.0 0.00 0.00 0.00 57 1015.8
20260904184049 93 97 0.0 2.0 0.00 0.00 0.00 53 1015.9
20260904183547 93 5 0.0 3.0 0.00 0.00 0.00 56 1016.0
20260904183107 92 100 1.0 5.0 0.00 0.00 0.00 53 1016.0
20260904182546 92 100 0.0 5.0 0.00 0.00 0.00 57 1016.1
20260904182045 92 123 1.0 6.0 0.00 0.00 0.00 55 1016.1
20260904181600 92 95 3.0 7.0 0.00 0.00 0.00 54 1016.2
20260904181044 92 126 1.0 3.0 0.00 0.00 0.00 58 1016.3
20260904180543 92 76 0.0 5.0 0.00 0.00 0.00 57 1016.3
20260904180044 92 131 1.0 5.0 0.00 0.00 0.00 60 1016.3
20260904175542 92 113 2.0 4.0 0.00 0.00 0.00 58 1016.3
20260904175042 92 110 1.0 4.0 0.00 0.00 0.00 57 1016.4
20260904174542 92 276 0.0 4.0 0.00 0.00 0.00 62 1016.4
20260904174043 91 248 1.0 3.0 0.00 0.00 0.00 58 1016.6
20260904173542 92 360 0.0 3.0 0.00 0.00 0.00 59 1016.6
20260904173041 91 101 1.0 4.0 0.00 0.00 0.00 59 1016.8
20260904172541 91 98 1.0 4.0 0.00 0.00 0.00 58 1016.9
20260904172041 91 187 1.0 4.0 0.00 0.00 0.00 58 1017.0
20260904171542 91 44 1.0 8.0 0.00 0.00 0.00 60 1017.0
20260904171040 92 107 2.0 8.0 0.00 0.00 0.00 58 1017.0
20260904170542 92 340 1.0 4.0 0.00 0.00 0.00 61 1017.1
20260904170040 91 127 0.0 4.0 0.00 0.00 0.00 55 1017.1
20260904165540 91 44 0.0 2.0 0.00 0.00 0.00 62 1017.1
20260904165039 91 101 0.0 3.0 0.00 0.00 0.00 61 1017.1
20260904164545 91 134 1.0 4.0 0.00 0.00 0.00 55 1017.2
20260904164040 91 98 0.0 4.0 0.00 0.00 0.00 63 1017.3
20260904163537 91 259 1.0 3.0 0.00 0.00 0.00 61 1017.4
20260904163037 91 267 0.0 1.0 0.00 0.00 0.00 61 1017.5
20260904162539 90 250 0.0 2.0 0.00 0.00 0.00 60 1017.5
20260904162036 90 344 0.0 2.0 0.00 0.00 0.00 68 1017.6
20260904161535 90 321 0.0 1.0 0.00 0.00 0.00 67 1017.6
20260904161038 89 321 0.0 3.0 0.00 0.00 0.00 65 1017.7
20260904160534 90 321 0.0 3.0 0.00 0.00 0.00 65 1017.6
20260904160033 89 281 0.0 2.0 0.00 0.00 0.00 68 1017.6
20260904155530 89 328 0.0 2.0 0.00 0.00 0.00 69 1017.7
20260904155029 88 177 0.0 3.0 0.00 0.00 0.00 67 1017.6
20260904154543 88 205 1.0 3.0 0.00 0.00 0.00 67 1017.7
20260904154032 87 78 0.0 3.0 0.00 0.00 0.00 69 1017.8
20260904153527 87 191 0.0 3.0 0.00 0.00 0.00 72 1017.7
20260904153027 87 217 0.0 2.0 0.00 0.00 0.00 69 1017.8
20260904152529 87 226 0.0 2.0 0.00 0.00 0.00 70 1017.7
20260904152026 86 221 0.0 2.0 0.00 0.00 0.00 71 1017.8
20260904151525 86 97 0.0 2.0 0.00 0.00 0.00 71 1017.8
20260904151025 86 157 0.0 4.0 0.00 0.00 0.00 73 1017.9
20260904150524 86 125 0.0 4.0 0.00 0.00 0.00 76 1017.9
20260904150023 86 280 0.0 2.0 0.00 0.00 0.00 76 1017.8
20260904145522 85 228 0.0 2.0 0.00 0.00 0.00 74 1017.9
20260904145021 85 226 0.0 2.0 0.00 0.00 0.00 74 1017.8
20260904144522 85 222 0.0 3.0 0.00 0.00 0.00 74 1017.9
20260904144024 85 305 0.0 3.0 0.00 0.00 0.00 77 1017.9
20260904143520 84 273 0.0 2.0 0.00 0.00 0.00 79 1017.8
20260904143029 84 257 0.0 3.0 0.00 0.00 0.00 80 1017.9
20260904142519 83 257 0.0 5.0 0.00 0.00 0.00 75 1017.9
20260904142023 83 234 2.0 5.0 0.00 0.00 0.00 75 1017.8
20260904141518 83 321 0.0 3.0 0.00 0.00 0.00 79 1017.8
20260904141016 82 319 1.0 3.0 0.00 0.00 0.00 77 1017.8
20260904140515 82 281 0.0 3.0 0.00 0.00 0.00 80 1017.8
20260904140031 82 254 0.0 3.0 0.00 0.00 0.00 81 1017.8
20260904135515 81 263 1.0 3.0 0.00 0.00 0.00 81 1017.9
20260904135011 81 217 0.0 3.0 0.00 0.00 0.00 82 1017.8
20260904134510 80 220 1.0 3.0 0.00 0.00 0.00 82 1017.7
20260904134009 80 211 1.0 4.0 0.00 0.00 0.00 82 1017.7
20260904133509 80 225 2.0 4.0 0.00 0.00 0.00 82 1017.6
20260904133008 80 257 1.0 3.0 0.00 0.00 0.00 83 1017.5
20260904132508 79 201 0.0 4.0 0.00 0.00 0.00 84 1017.6
20260904132010 79 254 0.0 3.0 0.00 0.00 0.00 85 1017.6
20260904131505 79 223 0.0 3.0 0.00 0.00 0.00 86 1017.5
20260904131005 78 228 0.0 4.0 0.00 0.00 0.00 88 1017.6
20260904130503 78 229 1.0 4.0 0.00 0.00 0.00 88 1017.6
20260904130003 78 213 0.0 3.0 0.00 0.00 0.00 89 1017.5
20260904125600 77 243 0.0 2.0 0.00 0.00 0.00 91 1017.6
20260904125101 76 271 0.0 2.0 0.00 0.00 0.00 93 1017.5
20260904124601 75 222 0.0 0.0 0.00 0.00 0.00 94 1017.5
20260904124057 75 222 0.0 0.0 0.00 0.00 0.00 96 1017.5
20260904123558 74 222 0.0 2.0 0.00 0.00 0.00 96 1017.6
20260904123057 74 211 0.0 2.0 0.00 0.00 0.00 97 1017.6
20260904122558 73 206 0.0 1.0 0.00 0.00 0.00 97 1017.6
20260904122057 72 206 0.0 0.0 0.00 0.00 0.00 97 1017.6
20260904121559 72 206 0.0 2.0 0.00 0.00 0.00 97 1017.5
20260904121100 72 206 0.0 2.0 0.00 0.00 0.00 97 1017.6
20260904120556 72 206 0.0 0.0 0.00 0.00 0.00 98 1017.5
20260904120100 71 206 0.0 0.0 0.00 0.00 0.00 97 1017.5
20260904115555 71 206 0.0 0.0 0.00 0.00 0.00 97 1017.5
20260904115055 71 206 0.0 0.0 0.00 0.00 0.00 98 1017.5
20260904114555 71 206 0.0 0.0 0.00 0.00 0.00 97 1017.5
20260904114055 70 206 0.0 0.0 0.00 0.00 0.00 97 1017.5
20260904113555 70 206 0.0 0.0 0.00 0.00 0.00 97 1017.4
20260904113054 70 206 0.0 0.0 0.00 0.00 0.00 97 1017.4
20260904112554 70 206 0.0 0.0 0.00 0.00 0.00 97 1017.4
20260904112054 70 206 0.0 0.0 0.00 0.00 0.00 97 1017.4
20260904111601 70 206 0.0 0.0 0.00 0.00 0.00 97 1017.4
20260904111055 70 206 0.0 0.0 0.00 0.00 0.00 97 1017.4
20260904110553 70 206 0.0 0.0 0.00 0.00 0.00 97 1017.4
20260904110056 70 206 0.0 0.0 0.00 0.00 0.00 97 1017.3
20260904105552 70 206 0.0 0.0 0.00 0.00 0.00 97 1017.3
20260904105054 70 206 0.0 0.0 0.00 0.00 0.00 97 1017.3
20260904104557 70 206 0.0 0.0 0.00 0.00 0.00 97 1017.3
20260904104050 70 206 0.0 0.0 0.00 0.00 0.00 97 1017.2
20260904103549 70 206 0.0 0.0 0.00 0.00 0.00 97 1017.2
20260904103050 70 206 0.0 0.0 0.00 0.00 0.00 97 1017.1
20260904102550 70 206 0.0 0.0 0.00 0.00 0.00 97 1017.1
20260904102049 70 206 0.0 0.0 0.00 0.00 0.00 97 1017.0
20260904101549 70 206 0.0 0.0 0.00 0.00 0.00 97 1017.1
20260904101052 70 206 0.0 0.0 0.00 0.00 0.00 97 1017.0
20260904100551 70 206 0.0 0.0 0.00 0.00 0.00 97 1017.0
20260904100048 70 206 0.0 0.0 0.00 0.00 0.00 97 1016.9
20260904095547 70 206 0.0 0.0 0.00 0.00 0.00 97 1016.8
20260904095046 71 206 0.0 0.0 0.00 0.00 0.00 97 1016.8
20260904094547 71 206 0.0 0.0 0.00 0.00 0.00 97 1016.8
20260904094049 71 206 0.0 0.0 0.00 0.00 0.00 97 1016.7
20260904093546 71 206 0.0 0.0 0.00 0.00 0.00 97 1016.7
20260904093047 71 206 0.0 0.0 0.00 0.00 0.00 97 1016.5
20260904092544 71 206 0.0 0.0 0.00 0.00 0.00 97 1016.5
20260904092045 71 206 0.0 0.0 0.00 0.00 0.00 97 1016.6
20260904091545 71 206 0.0 0.0 0.00 0.00 0.00 97 1016.5
20260904091044 71 206 0.0 0.0 0.00 0.00 0.00 97 1016.6
20260904090543 71 206 0.0 0.0 0.00 0.00 0.00 97 1016.5
20260904090043 71 206 0.0 0.0 0.00 0.00 0.00 97 1016.4
20260904085547 71 206 0.0 0.0 0.00 0.00 0.00 97 1016.5
20260904085043 71 206 0.0 0.0 0.00 0.00 0.00 97 1016.5
20260904084544 71 206 0.0 0.0 0.00 0.00 0.00 97 1016.5
20260904084042 71 206 0.0 0.0 0.00 0.00 0.00 97 1016.5
20260904083542 71 206 0.0 0.0 0.00 0.00 0.00 97 1016.4
20260904083042 71 206 0.0 0.0 0.00 0.00 0.00 97 1016.2
20260904082543 71 206 0.0 0.0 0.00 0.00 0.00 97 1016.3
20260904082043 72 206 0.0 0.0 0.00 0.00 0.00 97 1016.2
20260904081540 72 206 0.0 0.0 0.00 0.00 0.00 96 1016.3
20260904081040 72 206 0.0 0.0 0.00 0.00 0.00 96 1016.4
20260904080540 72 206 0.0 0.0 0.00 0.00 0.00 96 1016.3
20260904080040 72 206 0.0 0.0 0.00 0.00 0.00 96 1016.3
20260904075540 72 206 0.0 0.0 0.00 0.00 0.00 96 1016.4
20260904075039 72 206 0.0 0.0 0.00 0.00 0.00 96 1016.3
20260904074544 72 206 0.0 0.0 0.00 0.00 0.00 96 1016.2
20260904074036 72 206 0.0 0.0 0.00 0.00 0.00 96 1016.4
20260904073540 72 206 0.0 0.0 0.00 0.00 0.00 96 1016.4
20260904073036 72 206 0.0 0.0 0.00 0.00 0.00 96 1016.3
20260904072536 72 206 0.0 0.0 0.00 0.00 0.00 96 1016.3
20260904072035 72 206 0.0 0.0 0.00 0.00 0.00 96 1016.4
20260904071542 73 206 0.0 0.0 0.00 0.00 0.00 96 1016.5
20260904071034 73 206 0.0 0.0 0.00 0.00 0.00 96 1016.8
20260904070534 73 206 0.0 0.0 0.00 0.00 0.00 96 1016.7
20260904070033 73 206 0.0 0.0 0.00 0.00 0.00 96 1016.7
20260904065532 73 206 0.0 0.0 0.00 0.00 0.00 96 1016.7
20260904065133 73 206 0.0 0.0 0.00 0.00 0.00 96 1016.7
20260904064536 73 206 0.0 0.0 0.00 0.00 0.00 96 1016.7
20260904064031 73 206 0.0 0.0 0.00 0.00 0.00 95 1016.7
20260904063531 73 206 0.0 0.0 0.00 0.00 0.00 96 1016.7
20260904063035 73 206 0.0 0.0 0.00 0.00 0.00 95 1016.9
20260904062530 73 206 0.0 0.0 0.00 0.00 0.00 95 1016.9
20260904062029 73 206 0.0 0.0 0.00 0.00 0.00 95 1017.0
20260904061529 73 206 0.0 0.0 0.00 0.00 0.00 95 1017.0
20260904061028 73 206 0.0 0.0 0.00 0.00 0.00 95 1017.0
20260904060528 74 206 0.0 0.0 0.00 0.00 0.00 95 1016.9
20260904060028 74 206 0.0 0.0 0.00 0.00 0.00 95 1017.1
20260904055526 74 206 0.0 0.0 0.00 0.00 0.00 95 1017.2
20260904055025 74 206 0.0 0.0 0.00 0.00 0.00 95 1017.2
20260904054533 74 206 0.0 0.0 0.00 0.00 0.00 95 1017.2
20260904054025 74 206 0.0 0.0 0.00 0.00 0.00 95 1017.2
20260904053524 74 206 0.0 0.0 0.00 0.00 0.00 95 1017.3
20260904053028 74 206 0.0 0.0 0.00 0.00 0.00 95 1017.3
20260904052524 74 206 0.0 0.0 0.00 0.00 0.00 95 1017.3
20260904052025 74 206 0.0 0.0 0.00 0.00 0.00 95 1017.4
20260904051523 74 206 0.0 0.0 0.00 0.00 0.00 95 1017.4
20260904051022 74 206 0.0 0.0 0.00 0.00 0.00 95 1017.4
20260904050524 74 206 0.0 0.0 0.00 0.00 0.00 94 1017.6
20260904050021 74 206 0.0 0.0 0.00 0.00 0.00 94 1017.5
20260904045523 74 206 0.0 0.0 0.00 0.00 0.00 95 1017.6
20260904045020 75 206 0.0 0.0 0.00 0.00 0.00 95 1017.5
20260904044519 75 206 0.0 0.0 0.00 0.00 0.00 95 1017.6
20260904044019 75 206 0.0 0.0 0.00 0.00 0.00 95 1017.6
20260904043518 75 206 0.0 0.0 0.00 0.00 0.00 94 1017.7
20260904043019 75 206 0.0 0.0 0.00 0.00 0.00 94 1017.6
20260904042519 75 206 0.0 0.0 0.00 0.00 0.00 94 1017.7
20260904042022 75 206 0.0 1.0 0.00 0.00 0.00 94 1017.6
20260904041517 75 206 0.0 2.0 0.00 0.00 0.00 94 1017.8
20260904041017 75 206 1.0 2.0 0.00 0.00 0.00 94 1017.8